Visibility
11.4 8.4 7.6 11.6 11.2 10.9 0.9 2.8 2.9 7.3 15.0 15.0 12.1 10.1 15.0 15.0 13.9 15.0 14.5 15.0 15.0 5.3 6.3 15.0 15.0 5.1 15.0 15.0 15.0 15.0 15.0 15.0 15.0 9.0 15.0 15.0 15.0 15.0 15.0 15.0 15.0 15.0 15.0
10.6 8.8 12.3 13.7 15.0 13.8 2.5 3.3 3.3 0.3 14.3 4.2 3.7 2.3 13.1 14.9 13.6 14.6 1.3 7.5 14.8 11.0 13.8 13.0 9.9 5.2 15.0 15.0 15.0 15.0 15.0 15.0 15.0 8.3 6.7 15.0 15.0 15.0 15.0 15.0 15.0 15.0 15.0
7.5 8.6 5.0 6.2 12.6 11.2 5.0 2.9 12.9 8.9 5.3 12.4 0.7 11.8 4.0 4.6 4.2 15.0 14.7 5.5 5.9 13.1 9.3 8.6 15.0 15.0 13.1 15.0 15.0 15.0 15.0 13.0 15.0 15.0 15.0 15.0 15.0 14.4 15.0 15.0 15.0 15.0 15.0
8.8 7.0 12.6 6.3 4.6 4.3 4.1 3.8 3.6 3.4 3.9 3.6 2.6 5.4 0.3 0.1 2.0 7.0 5.4 6.2 6.8 6.6 9.8 9.4 11.8 6.7 8.1 15.0 15.0 15.0 15.0 15.0 15.0 15.0 15.0 15.0 15.0 11.0 15.0 15.0 15.0 15.0 15.0
5.8 10.5 12.6 3.6 3.9 5.9 7.4 5.3 13.5 3.1 6.2 6.7 3.0 3.6 4.4 2.6 0.5 0.3 0.2 2.3 1.1 4.2 14.7 15.0 14.4 8.9 15.0 14.8 14.4 10.9 12.0 15.0 11.8 15.0 14.9 8.4 3.7 0.2 11.3 13.1 8.5 9.0 13.1
9.8 14.9 6.1 9.9 9.0 15.0 8.6 5.7 8.5 10.5 8.3 14.4 4.2 4.7 5.6 5.8 0.5 0.4 0.2 0.2 0.2 4.0 3.0 15.0 14.9 0.1 0.1 0.3 0.3 1.0 3.4 14.1 9.1 11.4 7.8 6.6 13.3 14.9 4.7 8.7 11.5 14.8 0.0
8.7 8.0 5.9 13.0 5.1 14.6 5.5 10.6 15.0 14.7 7.7 15.0 8.2 8.0 11.6 3.5 8.7 2.5 2.0 7.5 5.7 0.9 1.1 0.2 1.6 5.7 0.1 12.5 0.0 0.1 0.1 4.6 6.5 10.6 8.6 11.2 14.2 12.1 15.0 15.0 15.0 11.0 6.0
8.3 10.1 13.9 11.2 14.5 15.0 15.0 15.0 15.0 15.0 15.0 15.0 11.0 15.0 12.6 3.8 14.4 4.6 8.7 12.3 4.1 4.0 3.0 10.9 6.5 1.3 0.1 5.2 4.9 0.1 0.1 0.2 2.5 8.3 14.8 15.0 15.0 15.0 15.0 15.0 15.0 11.7 0.1
11.9 7.7 11.3 15.0 9.0 5.9 9.5 15.0 14.8 9.7 11.5 15.0 3.4 15.0 15.0 15.0 13.2 15.0 0.8 4.6 14.6 14.0 13.9 14.5 15.0 15.0 0.1 0.2 0.3 0.1 0.1 0.1 0.2 0.4 15.0 15.0 15.0 15.0 6.5 0.1 0.0 0.0 0.0
14.2 9.5 15.0 14.7 15.0 14.9 15.0 13.9 14.4 8.0 10.1 15.0 15.0 15.0 15.0 15.0 14.7 14.1 7.2 15.0 15.0 15.0 14.9 15.0 0.8 0.1 0.1 0.0 0.1 0.1 0.0 0.1 0.1 0.0 0.0 0.1 0.1 0.2 0.1 7.4 2.7 0.1 0.0
15.0 14.8 15.0 15.0 15.0 10.9 15.0 15.0 15.0 15.0 12.6 15.0 15.0 10.5 1.2 1.1 11.8 15.0 13.9 14.6 15.0 15.0 15.0 15.0 15.0 0.1 0.1 0.0 0.0 7.4 0.0 0.0 0.0 0.0 0.0 0.0 0.1 0.1 0.1 0.3 7.2 15.0 0.0
15.0 15.0 15.0 15.0 15.0 15.0 15.0 15.0 15.0 15.0 10.9 0.3 15.0 15.0 15.0 14.6 9.5 0.4 0.5 15.0 15.0 15.0 10.0 0.3 0.4 0.1 9.7 1.6 0.0 0.0 0.0 0.0 0.0 0.0 0.0 0.0 0.0 0.0 0.0 0.0 0.0 0.0 0.0
15.0 15.0 15.0 15.0 15.0 15.0 15.0 15.0 15.0 15.0 15.0 15.0 15.0 15.0 15.0 15.0 15.0 15.0 15.0 15.0 15.0 0.3 5.1 0.2 13.7 15.0 15.0 0.2 0.1 0.1 0.0 0.0 0.0 0.0 0.0 0.0 0.0 0.0 0.0 0.0 0.0 0.1 0.1
15.0 15.0 15.0 15.0 15.0 15.0 15.0 15.0 15.0 15.0 14.7 15.0 15.0 15.0 15.0 15.0 15.0 15.0 15.0 15.0 15.0 3.4 15.0 6.7 11.8 0.9 0.1 0.1 0.0 0.0 0.0 0.0 0.0 0.0 0.0 0.0 0.0 0.0 0.0 0.0 0.0 0.0 0.1
15.0 15.0 15.0 15.0 15.0 15.0 15.0 14.9 15.0 15.0 15.0 15.0 7.6 15.0 15.0 8.0 15.0 15.0 15.0 15.0 15.0 6.8 0.1 8.8 1.4 0.2 0.1 0.0 0.0 0.0 0.0 0.0 0.0 0.0 0.0 0.0 0.0 0.0 0.0 0.0 0.0 0.0 0.0
15.0 15.0 15.0 15.0 15.0 14.4 15.0 14.9 15.0 15.0 15.0 15.0 15.0 14.4 15.0 15.0 15.0 15.0 15.0 15.0 15.0 15.0 11.4 0.4 2.9 0.4 0.5 0.1 0.2 0.0 0.0 0.0 0.0 0.0 0.0 0.0 0.0 0.0 0.0 0.0 0.1 0.1 0.1
15.0 15.0 15.0 15.0 15.0 15.0 15.0 7.5 8.3 15.0 15.0 15.0 15.0 15.0 15.0 15.0 15.0 15.0 15.0 15.0 15.0 15.0 4.3 14.7 15.0 4.4 1.6 15.0 15.0 14.5 0.0 0.0 0.1 0.0 0.0 0.0 0.0 0.0 0.0 0.0 0.1 0.1 0.1
13.9 15.0 15.0 15.0 15.0 14.4 10.0 7.5 15.0 15.0 9.5 15.0 15.0 15.0 15.0 15.0 15.0 15.0 15.0 15.0 6.6 13.5 7.7 7.1 15.0 15.0 15.0 15.0 15.0 15.0 14.8 0.2 0.1 0.1 0.0 0.0 0.0 0.0 0.0 0.0 0.1 0.1 0.3
7.5 8.4 14.6 5.2 4.8 13.9 15.0 7.1 11.4 14.1 13.9 8.9 14.9 15.0 15.0 15.0 15.0 15.0 15.0 3.4 3.4 4.3 15.0 15.0 15.0 15.0 15.0 15.0 11.4 15.0 0.0 0.0 0.0 0.0 0.0 0.0 0.0 0.1 0.1 0.1 0.5 11.6 9.3
14.3 15.0 12.2 4.4 13.5 15.0 15.0 15.0 15.0 15.0 15.0 15.0 10.4 15.0 15.0 14.3 0.1 0.0 0.1 0.0 6.3 5.9 15.0 15.0 15.0 15.0 15.0 15.0 13.2 0.0 0.0 0.0 0.0 0.0 0.0 0.0 0.0 0.1 0.1 0.4 11.9 0.7 15.0
5.5 15.0 15.0 12.7 13.2 15.0 15.0 12.6 11.5 15.0 14.8 9.7 15.0 15.0 15.0 14.1 0.6 10.6 13.7 13.6 14.3 12.5 14.4 15.0 15.0 15.0 15.0 15.0 14.8 0.1 0.1 0.0 0.1 0.1 0.1 0.1 0.0 0.1 15.0 15.0 15.0 15.0 15.0
10.6 15.0 14.2 9.0 4.5 15.0 13.9 10.2 12.2 5.0 4.2 6.0 11.8 15.0 15.0 0.9 0.1 0.1 10.2 12.2 10.4 13.7 15.0 14.9 13.4 15.0 15.0 15.0 2.5 0.0 0.0 0.0 0.1 0.2 0.1 0.1 0.2 15.0 15.0 12.5 12.2 15.0 7.0
12.1 3.9 8.2 13.4 15.0 15.0 10.6 14.5 3.7 3.8 2.8 3.9 7.0 0.5 5.8 7.7 0.0 0.0 0.1 0.1 2.9 0.1 0.0 0.1 1.7 15.0 15.0 6.6 9.4 2.0 0.1 0.1 3.2 8.8 0.1 0.1 0.3 0.4 1.4 0.1 0.1 0.0 0.0
10.7 5.3 7.4 10.3 5.7 7.3 9.1 7.4 3.1 12.1 2.8 0.5 0.2 0.7 0.1 0.3 0.1 0.0 0.0 0.0 0.0 0.0 0.0 0.0 0.0 0.1 0.1 0.0 0.1 3.9 15.0 7.3 2.8 0.2 0.1 0.1 0.0 0.1 0.0 0.0 0.0 0.0 0.0
5.5 2.9 3.6 3.1 1.8 1.2 0.5 3.3 0.8 0.1 0.1 0.1 0.1 0.2 0.1 0.1 0.0 0.0 0.0 0.0 0.0 0.0 0.0 0.0 0.0 0.0 0.0 0.0 0.0 0.0 0.1 0.0 0.0 0.0 0.0 0.0 0.0 0.0 0.0 0.0 0.0 0.0 0.0
13.4 11.5 3.7 2.9 1.4 0.9 0.2 0.1 0.1 0.1 0.1 0.0 0.0 0.0 0.0 0.0 0.1 0.0 0.0 0.0 0.0 0.0 0.0 0.0 0.0 0.0 0.0 0.0 0.0 0.0 0.0 0.0 0.0 0.0 0.0 0.0 0.0 0.0 0.0 0.0 0.1 0.7 14.7